sat.trackr.live / text

‹ back to catalog

APSTAR-7

NORAD 38107 · 2012-013A

PAYLOAD ACTIVE UNKNOWN

§ Identity

Operator
Country
PRC
Launch date
2012-03-31
Launch site
XICLF
Launch vehicle
Mass (kg)
RCS (m²)
0.00

Purposes: comms

External: N2YO · Heavens-Above · Gunter

§ Orbital elements

Epoch: 2026-09-12T04:24:21.688704Z

Period
1,436.10 min
Inclination
0.0185°
Eccentricity
0.0002531
Mean motion
1.00271637 rev/d
Perigee alt
35,776.0 km
Apogee alt
35,797.3 km
Semi-major
42,164.8 km
B*
0.0000e+0
RAAN
129.2476°
Arg perigee
41.7572°
Mean anomaly
322.7873°
Rev number
5,269

§ Raw data

APSTAR-71 38107U 12013A   26255.18358436 -.00000116  00000+0  00000+0 0  99912 38107   0.0185 129.2476 0002531  41.7572 322.7873  1.00271637 52694

JSON: /api/v1/satellites/38107 · /tle

For live sub-satellite position, see the globe view (requires WebGL).

§ Visibility from observer

Set your observer location to see the next 7 days of passes ≥ 10°. The values pass through the URL so the page stays shareable.

No JS? Fill the form by hand. The geolocation button needs JavaScript.